Weather History for KSIF - October, 2013

Change the Weather History Date:

Friday, October 18, 2013

  Actual Average (KGSO) Record (KGSO)
Temperature  
Mean Temperature 56 °F 59 °F  
Max Temperature 68 °F 70 °F 89 °F (1938)
Min Temperature 43 °F 48 °F 25 °F (1943)
Degree Days  
Heating Degree Days 10 7  
Month to date heating degree days 89  
Since 1 July heating degree days 120  
Cooling Degree Days 0 1  
Month to date cooling degree days 27  
Year to date cooling degree days 1474  
Growing Degree Days 6 (Base 50)    
Moisture  
Dew Point 49 °F    
Average Humidity 81    
Maximum Humidity 100    
Minimum Humidity 47    
Precipitation  
Precipitation 0.00 in 0.10 in 1.97 in (1968)
Month to date precipitation 1.81  
Year to date precipitation 34.79  
Sea Level Pressure  
Sea Level Pressure 30.00 in    
Wind  
Wind Speed 1 mph (NW)    
Max Wind Speed 6 mph    
Max Gust Speed -    
Visibility 9 miles    
Events      
T = Trace of Precipitation, MM = Missing Value Source: NWS Daily Summary

Daily Weather History Graph

Daily Weather History Graph

Search for Another Location

Airport or City:

Trip Planner

Search our weather history database for the weather conditions in past years. The results will help you decide how hot, cold, wet, or windy it might be!

Date:

Astronomy

Oct. 18, 2013 Rise Set
Actual Time 7:29 AM EDT 6:38 PM EDT
Civil Twilight 7:03 AM EDT 7:04 PM EDT
Nautical Twilight 6:33 AM EDT 7:34 PM EDT
Astronomical Twilight 6:03 AM EDT 8:04 PM EDT
Moon 6:28 PM EDT (10/18) 7:03 AM EDT (10/18)
Length of Visible Light 12h 01m
Length of Day
11h 09m
Full, 100% of the Moon is Illuminated
Oct 18
Full
Oct 18
Full
Oct 26
Last Quarter
Nov 3
New
Nov 10
First Quarter

Hourly Weather History & Observations

Time (EDT) Temp. Dew Point Humidity Pressure Visibility Wind Dir Wind Speed Gust Speed Precip Events Conditions
12:15 AM 63.5 °F 62.6 °F 97% 29.90 in 7.0 mi WSW 3.5 mph - N/A   Scattered Clouds
12:35 AM 62.6 °F 62.1 °F 98% 29.90 in 4.0 mi Calm Calm - N/A   Clear
12:55 AM 62.6 °F 62.2 °F 99% 29.91 in 5.0 mi North 3.5 mph - N/A   Scattered Clouds
1:15 AM 61.7 °F 60.3 °F 95% 29.92 in 10.0 mi Calm Calm - N/A   Scattered Clouds
1:35 AM 60.8 °F 57.9 °F 90% 29.92 in 10.0 mi Calm Calm - N/A   Clear
1:55 AM 59.2 °F 56.7 °F 91% 29.93 in 10.0 mi North 3.5 mph - N/A   Clear
2:15 AM 58.3 °F 55.0 °F 89% 29.93 in 10.0 mi Calm Calm - N/A   Clear
2:35 AM 57.4 °F 53.8 °F 88% 29.94 in 10.0 mi North 3.5 mph - N/A   Clear
2:55 AM 56.7 °F 52.7 °F 87% 29.94 in 10.0 mi Calm Calm - N/A   Clear
3:15 AM 55.4 °F 52.0 °F 88% 29.94 in 10.0 mi Calm Calm - N/A   Clear
3:35 AM 54.9 °F 51.1 °F 87% 29.94 in 10.0 mi Calm Calm - N/A   Clear
3:55 AM 52.7 °F 50.0 °F 91% 29.94 in 10.0 mi Calm Calm - N/A   Clear
4:15 AM 51.4 °F 50.4 °F 96% 29.95 in 10.0 mi Calm Calm - N/A   Clear
4:35 AM 51.1 °F 50.2 °F 97% 29.95 in 10.0 mi Calm Calm - N/A   Clear
4:55 AM 52.0 °F 49.8 °F 92% 29.96 in 10.0 mi Calm Calm - N/A   Clear
5:15 AM 50.9 °F 49.1 °F 94% 29.96 in 10.0 mi Calm Calm - N/A   Clear
5:35 AM 50.4 °F 48.2 °F 92% 29.97 in 10.0 mi Calm Calm - N/A   Clear
5:55 AM 48.4 °F 46.9 °F 95% 29.97 in 10.0 mi Calm Calm - N/A   Clear
6:15 AM 46.8 °F 45.7 °F 96% 29.98 in 7.0 mi Calm Calm - N/A   Clear
6:35 AM 45.0 °F 44.4 °F 98% 29.98 in 7.0 mi Calm Calm - N/A   Clear
6:55 AM 45.7 °F 45.3 °F 99% 29.99 in 10.0 mi Calm Calm - N/A   Clear
7:15 AM 44.8 °F 44.6 °F 99% 30.00 in 10.0 mi Calm Calm - N/A   Clear
7:35 AM 43.7 °F 43.3 °F 99% 30.01 in 7.0 mi Calm Calm - N/A   Clear
7:55 AM 43.7 °F 43.5 °F 99% 30.01 in 5.0 mi Calm Calm - N/A   Clear
8:15 AM 45.0 °F 45.0 °F 100% 30.03 in 5.0 mi Calm Calm - N/A   Clear
8:35 AM 47.7 °F 47.7 °F 100% 30.03 in 7.0 mi Calm Calm - N/A   Clear
8:55 AM 51.6 °F 50.2 °F 95% 30.04 in 10.0 mi Calm Calm - N/A   Clear
9:15 AM 54.7 °F 47.5 °F 77% 30.05 in 10.0 mi North 3.5 mph - N/A   Clear
9:35 AM 55.8 °F 46.4 °F 71% 30.06 in 10.0 mi NNE 3.5 mph - N/A   Clear
9:55 AM 56.7 °F 46.4 °F 69% 30.07 in 10.0 mi Calm Calm - N/A   Scattered Clouds
10:15 AM 58.1 °F 45.3 °F 62% 30.07 in 10.0 mi NNE 3.5 mph - N/A   Mostly Cloudy
10:35 AM 58.1 °F 45.1 °F 62% 30.07 in 10.0 mi North 4.6 mph - N/A   Overcast
10:55 AM 59.0 °F 45.9 °F 62% 30.07 in 10.0 mi Calm Calm - N/A   Overcast
11:15 AM 59.5 °F 45.1 °F 59% 30.07 in 10.0 mi Calm Calm - N/A   Overcast
11:35 AM 59.9 °F 45.3 °F 59% 30.08 in 10.0 mi ENE 3.5 mph - N/A   Overcast
11:55 AM 61.0 °F 45.9 °F 58% 30.07 in 10.0 mi Calm Calm - N/A   Overcast
12:15 PM 61.9 °F 45.9 °F 56% 30.06 in 10.0 mi North 5.8 mph - N/A   Mostly Cloudy
12:35 PM 62.1 °F 45.7 °F 55% 30.06 in 10.0 mi Calm Calm - N/A   Mostly Cloudy
12:55 PM 62.6 °F 44.8 °F 52% 30.05 in 10.0 mi Calm Calm - N/A   Overcast
1:15 PM 62.8 °F 45.3 °F 53% 30.04 in 10.0 mi Calm Calm - N/A   Overcast
1:35 PM 63.5 °F 46.4 °F 54% 30.03 in 10.0 mi Calm Calm - N/A   Mostly Cloudy
1:55 PM 65.3 °F 46.9 °F 51% 30.02 in 10.0 mi SSW 4.6 mph - N/A   Mostly Cloudy
2:15 PM 64.4 °F 47.1 °F 53% 30.01 in 10.0 mi East 3.5 mph - N/A   Overcast
2:35 PM 64.6 °F 46.6 °F 52% 30.00 in 10.0 mi South 3.5 mph - N/A   Mostly Cloudy
2:55 PM 65.7 °F 46.0 °F 49% 30.00 in 10.0 mi WSW 3.5 mph - N/A   Scattered Clouds
3:15 PM 67.5 °F 47.1 °F 48% 29.99 in 10.0 mi SW 3.5 mph - N/A   Clear
3:35 PM 67.8 °F 47.3 °F 48% 29.99 in 10.0 mi WSW 3.5 mph - N/A   Scattered Clouds
3:55 PM 68.2 °F 47.5 °F 47% 29.99 in 10.0 mi SSE 3.5 mph - N/A   Mostly Cloudy
4:15 PM 67.8 °F 48.0 °F 49% 29.98 in 10.0 mi WSW 3.5 mph - N/A   Mostly Cloudy
4:35 PM 67.6 °F 47.7 °F 49% 29.98 in 10.0 mi Calm Calm - N/A   Scattered Clouds
4:55 PM 67.1 °F 48.2 °F 51% 29.98 in 10.0 mi Calm Calm - N/A   Scattered Clouds
5:15 PM 67.6 °F 49.6 °F 52% 29.98 in 10.0 mi WSW 3.5 mph - N/A   Scattered Clouds
5:35 PM 67.3 °F 48.6 °F 51% 29.98 in 10.0 mi Calm Calm - N/A   Scattered Clouds
5:55 PM 65.3 °F 50.9 °F 60% 29.98 in 10.0 mi Calm Calm - N/A   Scattered Clouds
6:15 PM 61.0 °F 55.6 °F 82% 29.98 in 10.0 mi Calm Calm - N/A   Clear
6:35 PM 58.1 °F 54.7 °F 88% 29.98 in 10.0 mi Calm Calm - N/A   Clear
6:55 PM 55.6 °F 53.6 °F 93% 29.98 in 10.0 mi Calm Calm - N/A   Clear
7:15 PM 54.7 °F 53.4 °F 96% 29.99 in 10.0 mi Calm Calm - N/A   Clear
7:35 PM 52.9 °F 51.4 °F 95% 29.99 in 10.0 mi Calm Calm - N/A   Clear
7:55 PM 52.0 °F 51.1 °F 97% 30.00 in 10.0 mi Calm Calm - N/A   Clear
8:15 PM 50.9 °F 50.2 °F 97% 30.00 in 7.0 mi Calm Calm - N/A   Clear
8:35 PM 50.4 °F 49.8 °F 98% 30.00 in 7.0 mi Calm Calm - N/A   Clear
8:55 PM 50.0 °F 49.3 °F 97% 30.01 in 7.0 mi Calm Calm - N/A   Clear
9:15 PM 49.1 °F 48.7 °F 99% 30.00 in 7.0 mi Calm Calm - N/A   Clear
9:35 PM 48.2 °F 47.8 °F 99% 30.01 in 7.0 mi Calm Calm - N/A   Clear
9:55 PM 48.2 °F 47.8 °F 99% 30.01 in 5.0 mi Calm Calm - N/A   Clear
10:15 PM 48.4 °F 48.2 °F 99% 30.02 in 5.0 mi Calm Calm - N/A   Clear
10:35 PM 48.4 °F 48.2 °F 99% 30.01 in 5.0 mi Calm Calm - N/A   Clear
10:55 PM 48.6 °F 48.6 °F 100% 30.01 in 5.0 mi Calm Calm - N/A   Clear
11:15 PM 48.2 °F 48.2 °F 100% 30.01 in 4.0 mi Calm Calm - N/A   Clear
11:35 PM 47.7 °F 47.5 °F 99% 30.01 in 5.0 mi Calm Calm - N/A   Clear
11:55 PM 47.5 °F 47.5 °F 100% 30.01 in 4.0 mi Calm Calm - N/A   Clear